Skip Page Navigation
NASA JPL Caltech
NASA Logo - Jet Propulsion Laboratory + View the NASA Portal
+ Center for Near-Earth Object Studies
JPL Home Earth Solar System Stars & Galaxies Technology
JPL Solar System Dynamics
BODIES ORBITS EPHEMERIDES TOOLS PHYSICAL DATA DISCOVERY FAQ SITE MAP
JPL Small-Body Database Browser
Search: [ help ]  
452006 (2014 OX57)
Classification: Main-belt Asteroid          SPK-ID: 2452006
Ephemeris | Orbit Diagram | Orbital Elements | Mission Design | Physical Parameters | Discovery Circumstances ]

[ show orbit diagram ]
Orbital Elements at Epoch 2459000.5 (2020-May-31.0) TDB
Reference: JPL 13 (heliocentric ecliptic J2000)
 Element Value Uncertainty (1-sigma)   Units 
e .1309267923484584 4.7756e-08  
a 2.612717474638798 3.7307e-08 au
q 2.270642756371575 1.2464e-07 au
i 3.336269156988502 5.3794e-06 deg
node 52.31912693010065 0.00016329 deg
peri 186.6345995560173 0.00016882 deg
M 197.5163706014799 4.9337e-05 deg
tp 2459696.716340914996
(2022-Apr-27.21634091)
0.00022184 TDB
period 1542.542369697223
4.22
3.3039e-05
9.046e-08
d
yr
n .2333809476304126 4.9987e-09 deg/d
Q 2.95479219290602 4.2192e-08 au
  Orbit Determination Parameters
   # obs. used (total)      105  
   data-arc span      5283 days (14.46 yr)  
   first obs. used      2005-05-10  
   last obs. used      2019-10-27  
   planetary ephem.      DE431  
   SB-pert. ephem.      SB431-N16  
   condition code      0  
   norm. resid. RMS      .59166  
   source      ORB  
   producer      Otto Matic  
   solution date      2019-Nov-08 16:46:58  

Additional Information
 Earth MOID = 1.25848 au 
 Jupiter MOID = 2.04788 au 
 T_jup = 3.394 
[ show covariance matrix ]

Ephemeris | Orbit Diagram | Orbital Elements | Mission Design | Physical Parameters | Discovery Circumstances ]

Physical Parameter Table
Parameter Symbol Value Units Sigma Reference Notes
absolute magnitude H 17.2   n/a MPO456151  

452006 (2014 OX57)          Discovered 2005-May-10 by Mt. Lemmon Survey at Mount Lemmon
Reference: Last Updated: 2015-11-30

Alternate Designations
 2014 OX57 = 2013 CN151 
Ephemeris | Orbit Diagram | Orbital Elements | Mission Design | Physical Parameters | Discovery Circumstances ]
ABOUT SSD CREDITS/AWARDS PRIVACY/COPYRIGHT GLOSSARY LINKS
FirstGov 2020-Aug-05 00:40 UT
(server date/time)  
NASA Home Page
Site Manager:   Ryan S. Park
Webmaster  Alan B. Chamberlin